{"data":{"norad_id":58233,"intl_designator":"2023-171D","name":"STARLINK-30777","alt_names":[],"object_type":"PAYLOAD","status":"ACTIVE","operator":null,"country":"US","launch_date":"2023-11-08","launch_site_code":"AFETR","launch_vehicle":null,"mission":null,"orbit_class":"UNKNOWN","rcs_meters":null,"size_class":null,"mass_kg":null,"dimensions":null,"purposes":["comms"],"wikipedia_slug":null,"has_3d_model":false,"image_url":null,"decayed_at":null,"tle_current":{"epoch":"2026-05-25T05:05:27.316608Z","epoch_age_seconds":52715,"freshness":"FRESH","line1":"1 58233U 23171D   26145.21212172  .00002371  00000+0  95647-4 0  9998","line2":"2 58233  42.9979 213.4159 0001152 280.8886  79.1836 15.27580357141437","mean_motion":15.27580357,"eccentricity":0.0001152,"inclination_deg":42.9979,"raan_deg":213.4159,"arg_perigee_deg":280.8886,"mean_anomaly_deg":79.1836,"bstar":9.5647e-5,"rev_number":14143,"period_min":94.266726683237,"perigee_km":482.25761853832,"apogee_km":483.83843556855,"semimajor_km":6861.1850270534,"source":"CELESTRAK","updated_at":"2026-05-25T13:38:18.579757Z"}}}